• Em Portugal
  • Lista de países
  • Para 7 dias
  • Temperatura da água
  • Mapas de satélite
  • Mapa do tempo
  • Widgets de tempo
  • user-avatar
    Iniciar Sessão

    Previsão horária em Saurimo

    Hoje, 17 Dezembro, Domingo

    Tempo Temperatura Precipitação Vento Pressão Humidade
    00:00 +18°C° 0,4 mm 0 m/s 670 mmHg 96%
    01:00 +18°C° 0 mm 0 m/s 670 mmHg 96%
    02:00 +18°C° 0 mm 0 m/s 670 mmHg 96%
    03:00 +17°C° 0 mm 0 m/s 670 mmHg 96%
    04:00 +17°C° 0 mm 0 m/s 670 mmHg 97%
    05:00 +20°C° 0 mm 1 m/s 670 mmHg 95%
    06:00 +21°C° 0 mm 1 m/s 670 mmHg 94%
    07:00 +22°C° 0 mm 1 m/s 671 mmHg 93%
    08:00 +24°C° 1,1 mm 1 m/s 671 mmHg 89%
    09:00 +25°C° 1,1 mm 1 m/s 671 mmHg 85%
    10:00 +27°C° 1,1 mm 1 m/s 671 mmHg 82%
    11:00 +28°C° 1,6 mm 1 m/s 670 mmHg 78%
    12:00 +26°C° 1,6 mm 0 m/s 670 mmHg 75%
    13:00 +27°C° 1,6 mm 0 m/s 669 mmHg 72%
    14:00 +29°C° 1,4 mm 1 m/s 669 mmHg 77%
    15:00 +28°C° 1,4 mm 1 m/s 668 mmHg 81%
    16:00 +27°C° 1,4 mm 1 m/s 668 mmHg 86%
    17:00 +25°C° 1 mm 1 m/s 668 mmHg 88%
    18:00 +24°C° 1 mm 1 m/s 668 mmHg 90%
    19:00 +22°C° 1 mm 1 m/s 669 mmHg 92%
    20:00 +22°C° 0,3 mm 1 m/s 669 mmHg 92%
    21:00 +22°C° 0,3 mm 1 m/s 669 mmHg 93%
    22:00 +22°C° 0,3 mm 1 m/s 670 mmHg 93%
    23:00 +21°C° 0,2 mm 1 m/s 670 mmHg 94%

    Amanhã, 18 Dezembro, Segunda-feira

    Tempo Temperatura Precipitação Vento Pressão Humidade
    00:00 +21°C° 0,2 mm 1 m/s 669 mmHg 95%
    01:00 +20°C° 0,2 mm 2 m/s 669 mmHg 96%
    02:00 +19°C° 0,6 mm 2 m/s 669 mmHg 97%
    03:00 +19°C° 0,6 mm 2 m/s 669 mmHg 97%
    04:00 +19°C° 0,6 mm 2 m/s 669 mmHg 97%
    05:00 +19°C° 0,4 mm 2 m/s 669 mmHg 97%
    06:00 +20°C° 0,4 mm 2 m/s 670 mmHg 97%
    07:00 +20°C° 0,4 mm 2 m/s 670 mmHg 96%
    08:00 +21°C° 0,5 mm 2 m/s 670 mmHg 94%
    09:00 +23°C° 0,5 mm 2 m/s 670 mmHg 92%
    10:00 +24°C° 0,5 mm 2 m/s 671 mmHg 90%
    11:00 +25°C° 0,9 mm 2 m/s 670 mmHg 88%
    12:00 +25°C° 0,9 mm 2 m/s 669 mmHg 85%
    13:00 +26°C° 0,9 mm 2 m/s 669 mmHg 83%
    14:00 +26°C° 1,1 mm 2 m/s 669 mmHg 85%
    15:00 +25°C° 1,1 mm 2 m/s 668 mmHg 87%
    16:00 +25°C° 1,1 mm 1 m/s 668 mmHg 90%
    17:00 +24°C° 1,5 mm 1 m/s 668 mmHg 91%
    18:00 +23°C° 1,5 mm 1 m/s 668 mmHg 93%
    19:00 +22°C° 1,5 mm 1 m/s 669 mmHg 94%
    20:00 +21°C° 0,7 mm 1 m/s 669 mmHg 94%
    21:00 +21°C° 0,7 mm 1 m/s 669 mmHg 95%
    22:00 +21°C° 0,7 mm 1 m/s 670 mmHg 95%
    23:00 +20°C° 0,3 mm 1 m/s 669 mmHg 96%

    Depois de amanhã, 19 Dezembro, Terça-feira

    Tempo Temperatura Precipitação Vento Pressão Humidade
    00:00 +20°C° 0,3 mm 1 m/s 669 mmHg 96%
    01:00 +20°C° 0,3 mm 1 m/s 668 mmHg 97%
    02:00 +20°C° 0,2 mm 1 m/s 668 mmHg 97%
    03:00 +19°C° 0,2 mm 1 m/s 668 mmHg 97%
    04:00 +19°C° 0,2 mm 1 m/s 668 mmHg 97%
    05:00 +20°C° 0,1 mm 1 m/s 669 mmHg 96%
    06:00 +20°C° 0,1 mm 1 m/s 669 mmHg 95%
    07:00 +21°C° 0,1 mm 1 m/s 670 mmHg 94%
    08:00 +22°C° 0,1 mm 1 m/s 670 mmHg 88%
    09:00 +24°C° 0,1 mm 1 m/s 670 mmHg 83%
    10:00 +25°C° 0,1 mm 2 m/s 671 mmHg 77%
    11:00 +26°C° 0,4 mm 1 m/s 670 mmHg 75%
    12:00 +27°C° 0,4 mm 1 m/s 670 mmHg 73%
    13:00 +28°C° 0,4 mm 1 m/s 669 mmHg 70%
    14:00 +27°C° 1,4 mm 2 m/s 669 mmHg 77%
    15:00 +26°C° 1,4 mm 2 m/s 668 mmHg 83%
    16:00 +25°C° 1,4 mm 2 m/s 668 mmHg 90%
    17:00 +24°C° 1,5 mm 2 m/s 668 mmHg 92%
    18:00 +23°C° 1,5 mm 2 m/s 669 mmHg 93%
    19:00 +20°C° 1,5 mm 2 m/s 669 mmHg 95%
    20:00 +20°C° 0,6 mm 2 m/s 669 mmHg 96%
    21:00 +20°C° 0,6 mm 2 m/s 670 mmHg 96%
    22:00 +20°C° 0,6 mm 2 m/s 670 mmHg 97%
    23:00 +19°C° 0,4 mm 2 m/s 670 mmHg 97%

    20 Dezembro, Quarta-feira

    Tempo Temperatura Precipitação Vento Pressão Humidade
    00:00 +19°C° 0,4 mm 2 m/s 669 mmHg 97%
    01:00 +19°C° 0,4 mm 2 m/s 669 mmHg 97%
    02:00 +19°C° 0,6 mm 2 m/s 669 mmHg 97%
    03:00 +19°C° 0,6 mm 2 m/s 669 mmHg 97%
    04:00 +19°C° 0,6 mm 2 m/s 669 mmHg 97%
    05:00 +19°C° 0,7 mm 2 m/s 669 mmHg 97%
    06:00 +19°C° 0,7 mm 2 m/s 670 mmHg 97%
    07:00 +19°C° 0,7 mm 2 m/s 670 mmHg 97%
    08:00 +20°C° 0,5 mm 1 m/s 670 mmHg 96%
    09:00 +20°C° 0,5 mm 1 m/s 670 mmHg 95%
    10:00 +20°C° 0,5 mm 1 m/s 671 mmHg 95%
    11:00 +21°C° 0,1 mm 1 m/s 670 mmHg 94%
    12:00 +21°C° 0,1 mm 1 m/s 670 mmHg 93%
    13:00 +21°C° 0,1 mm 1 m/s 669 mmHg 92%
    14:00 +21°C° 0,4 mm 1 m/s 669 mmHg 93%
    15:00 +21°C° 0,4 mm 1 m/s 669 mmHg 93%
    16:00 +21°C° 0,4 mm 1 m/s 669 mmHg 94%
    17:00 +21°C° 0 mm 1 m/s 669 mmHg 94%
    18:00 +20°C° 0 mm 1 m/s 670 mmHg 95%
    19:00 +18°C° 0 mm 0 m/s 670 mmHg 95%
    20:00 +17°C° 0 mm 0 m/s 670 mmHg 95%
    21:00 +17°C° 0 mm 0 m/s 671 mmHg 94%
    22:00 +17°C° 0 mm 0 m/s 671 mmHg 94%
    23:00 +17°C° 0 mm 0 m/s 671 mmHg 94%

    21 Dezembro, Quinta-feira

    Tempo Temperatura Precipitação Vento Pressão Humidade
    00:00 +17°C° 0 mm 0 m/s 670 mmHg 94%
    01:00 +17°C° 0 mm 0 m/s 670 mmHg 94%
    02:00 +16°C° 0 mm 0 m/s 670 mmHg 94%
    03:00 +16°C° 0 mm 0 m/s 669 mmHg 94%
    04:00 +16°C° 0 mm 0 m/s 669 mmHg 94%
    05:00 +17°C° 0 mm 0 m/s 670 mmHg 93%
    06:00 +18°C° 0 mm 0 m/s 671 mmHg 92%
    07:00 +18°C° 0 mm 0 m/s 671 mmHg 91%
    08:00 +20°C° 0 mm 0 m/s 672 mmHg 83%
    09:00 +24°C° 0 mm 1 m/s 672 mmHg 76%
    10:00 +26°C° 0 mm 1 m/s 672 mmHg 69%
    11:00 +27°C° 0,4 mm 1 m/s 672 mmHg 68%
    12:00 +27°C° 0,4 mm 1 m/s 671 mmHg 68%
    13:00 +27°C° 0,4 mm 1 m/s 671 mmHg 68%
    14:00 +27°C° 0,9 mm 1 m/s 670 mmHg 73%
    15:00 +26°C° 0,9 mm 1 m/s 670 mmHg 78%
    16:00 +25°C° 0,9 mm 1 m/s 670 mmHg 84%
    17:00 +24°C° 0,6 mm 1 m/s 670 mmHg 87%
    18:00 +22°C° 0,6 mm 1 m/s 670 mmHg 91%
    19:00 +21°C° 0,6 mm 1 m/s 670 mmHg 94%
    20:00 +18°C° 0 mm 0 m/s 670 mmHg 95%
    21:00 +18°C° 0 mm 0 m/s 670 mmHg 95%
    22:00 +18°C° 0 mm 0 m/s 671 mmHg 95%
    23:00 +18°C° 0 mm 0 m/s 670 mmHg 95%

    22 Dezembro, Sexta-feira

    Tempo Temperatura Precipitação Vento Pressão Humidade
    00:00 +18°C° 0 mm 0 m/s 670 mmHg 96%
    01:00 +20°C° 0 mm 1 m/s 670 mmHg 96%
    02:00 +20°C° 0 mm 1 m/s 670 mmHg 96%
    03:00 +19°C° 0 mm 1 m/s 670 mmHg 96%
    04:00 +19°C° 0 mm 1 m/s 670 mmHg 96%
    05:00 +20°C° 0 mm 1 m/s 670 mmHg 95%
    06:00 +19°C° 0 mm 0 m/s 671 mmHg 94%
    07:00 +19°C° 0 mm 0 m/s 671 mmHg 92%
    08:00 +21°C° 0,4 mm 0 m/s 671 mmHg 87%
    09:00 +25°C° 0,4 mm 1 m/s 671 mmHg 82%
    10:00 +27°C° 0,4 mm 1 m/s 672 mmHg 77%
    11:00 +27°C° 0,8 mm 1 m/s 671 mmHg 74%
    12:00 +27°C° 0,8 mm 2 m/s 670 mmHg 71%
    13:00 +28°C° 0,8 mm 2 m/s 670 mmHg 68%
    14:00 +27°C° 0,4 mm 2 m/s 669 mmHg 73%
    15:00 +27°C° 0,4 mm 2 m/s 669 mmHg 78%
    16:00 +26°C° 0,4 mm 2 m/s 668 mmHg 83%
    17:00 +25°C° 0,8 mm 2 m/s 669 mmHg 87%
    18:00 +23°C° 0,8 mm 1 m/s 669 mmHg 90%
    19:00 +21°C° 0,8 mm 1 m/s 669 mmHg 94%
    20:00 +21°C° 0 mm 1 m/s 669 mmHg 95%
    21:00 +21°C° 0 mm 1 m/s 669 mmHg 95%
    22:00 +20°C° 0 mm 1 m/s 669 mmHg 95%
    23:00 +20°C° 0 mm 1 m/s 669 mmHg 96%
    Mostrar mais

    XHprof extension not loaded